contact:dominique.lefevre@mio.osupytheas.fr, maurice.libes@osupytheas.fr
Project:EMSO Ligure-ouest http://www.emso-fr.org/EMSO-France
Sensor Aquadopp, line 13 Serial AQD14315 
DOI : "https://doi.org/10.17882/74513; https://doi.org/10.17882/83244" 
Title:EMSO Ligure Ouest : Data ligne ALBATROSS capteur AQUADOPP - deploiement 2021
Id,Date,Profondeur,Latitude,Longitude,X_East,Y_North,Z_Up,Amplitude_X,Amplitude_Y,Amplitude_Z,Batterie,SoundSpeed,Heading,Pitch,Roll,Pressure,Temperature,Speed,Direction
, , m, degrees North, degrees East, m.s-1, m.s-1,m.s-1, 1, 1, 1, Volt, m.s-1, degree, degree, degree, dbar, degree_C, m.s-1, degree
07,2023-03-17T23:30:00,1500.0,42.79,6.0312,-0.102,0.006,-0.001,53.0,54.0,52.0,12.3,1504.1,243.0,-1.7,0.9,1475.935,13.12,0.102,273.4
07,2023-03-18T00:00:00,1500.0,42.79,6.0312,-0.099,-0.002,0.001,52.0,53.0,52.0,12.3,1504.1,231.1,-1.1,1.7,1475.868,13.12,0.099,268.8
07,2023-03-18T00:30:00,1500.0,42.79,6.0312,-0.092,-0.038,-0.015,52.0,54.0,54.0,12.3,1504.1,217.3,-1.4,1.5,1475.878,13.13,0.099,247.6
07,2023-03-18T01:00:00,1500.0,42.79,6.0312,-0.102,-0.039,0.01,53.0,54.0,52.0,12.3,1504.1,211.0,-1.4,2.4,1475.879,13.13,0.109,249.1
07,2023-03-18T01:30:00,1500.0,42.79,6.0312,-0.096,-0.016,-0.006,55.0,55.0,53.0,12.3,1504.1,219.0,-0.3,2.1,1475.799,13.13,0.097,260.5
07,2023-03-18T02:00:00,1500.0,42.79,6.0312,-0.099,-0.034,0.004,54.0,55.0,52.0,12.3,1504.1,217.5,-0.6,1.5,1475.81,13.13,0.104,251.0
07,2023-03-18T02:30:00,1500.0,42.79,6.0312,-0.082,-0.034,0.006,52.0,53.0,53.0,12.3,1504.1,212.6,-1.7,1.6,1475.852,13.13,0.088,247.5
07,2023-03-18T03:00:00,1500.0,42.79,6.0312,-0.094,0.005,0.001,53.0,54.0,52.0,12.3,1504.1,236.6,-1.3,1.2,1475.941,13.13,0.094,273.0
07,2023-03-18T03:30:00,1500.0,42.79,6.0312,-0.105,0.001,-0.002,52.0,52.0,53.0,12.3,1504.1,228.0,-1.6,2.2,1476.009,13.13,0.105,270.5
07,2023-03-18T04:00:00,1500.0,42.79,6.0312,-0.113,-0.004,-0.01,53.0,55.0,53.0,12.3,1504.1,230.6,-1.3,1.3,1475.978,13.13,0.113,268.0
07,2023-03-18T04:30:00,1500.0,42.79,6.0312,-0.106,-0.015,0.029,53.0,52.0,52.0,12.3,1504.1,221.4,-0.7,1.9,1476.005,13.12,0.107,261.9
07,2023-03-18T05:00:00,1500.0,42.79,6.0312,-0.099,-0.003,0.0,52.0,54.0,54.0,12.3,1504.1,222.9,-0.5,2.0,1476.061,13.13,0.099,268.3
07,2023-03-18T05:30:00,1500.0,42.79,6.0312,-0.099,-0.02,-0.001,53.0,54.0,52.0,12.3,1504.1,219.9,-2.0,2.0,1475.989,13.13,0.101,258.6
07,2023-03-18T06:00:00,1500.0,42.79,6.0312,-0.096,0.012,0.003,54.0,53.0,53.0,12.3,1504.1,227.3,-1.0,1.5,1476.038,13.12,0.096,277.1
07,2023-03-18T06:30:00,1500.0,42.79,6.0312,-0.092,0.0,0.011,53.0,53.0,53.0,12.3,1504.1,223.9,-0.2,1.6,1476.005,13.12,0.092,270.0
07,2023-03-18T07:00:00,1500.0,42.79,6.0312,-0.095,-0.011,0.0,53.0,55.0,54.0,12.3,1504.1,217.8,-0.7,1.9,1476.091,13.12,0.095,263.4
07,2023-03-18T07:30:00,1500.0,42.79,6.0312,-0.091,-0.024,-0.004,52.0,53.0,52.0,12.3,1504.1,214.6,-2.0,1.9,1475.982,13.13,0.094,255.2
07,2023-03-18T08:00:00,1500.0,42.79,6.0312,-0.103,-0.01,0.003,52.0,51.0,51.0,12.3,1504.1,218.1,-2.0,1.6,1475.872,13.13,0.103,264.5
07,2023-03-18T08:30:00,1500.0,42.79,6.0312,-0.094,-0.02,0.008,53.0,53.0,53.0,12.3,1504.1,223.9,-1.1,1.3,1475.941,13.13,0.096,258.0
07,2023-03-18T09:00:00,1500.0,42.79,6.0312,-0.102,-0.007,0.007,53.0,53.0,54.0,12.3,1504.1,221.6,-0.9,1.8,1475.834,13.12,0.102,266.1
07,2023-03-18T09:30:00,1500.0,42.79,6.0312,-0.101,-0.031,-0.011,54.0,53.0,54.0,12.3,1504.1,213.5,0.0,1.9,1475.817,13.12,0.105,252.9
07,2023-03-18T10:00:00,1500.0,42.79,6.0312,-0.079,-0.039,-0.019,55.0,55.0,54.0,12.3,1504.1,204.7,-1.7,2.0,1475.799,13.12,0.088,243.7
07,2023-03-18T10:30:00,1500.0,42.79,6.0312,-0.099,-0.004,0.003,53.0,55.0,54.0,12.3,1504.1,220.0,0.1,1.4,1475.758,13.12,0.099,267.7
07,2023-03-18T11:00:00,1500.0,42.79,6.0312,-0.096,-0.045,0.013,54.0,54.0,52.0,12.3,1504.1,202.7,-2.2,2.1,1475.735,13.12,0.106,244.9
07,2023-03-18T11:30:00,1500.0,42.79,6.0312,-0.1,-0.033,0.009,53.0,53.0,52.0,12.3,1504.1,211.6,-1.0,2.3,1475.714,13.12,0.105,251.7
07,2023-03-18T12:00:00,1500.0,42.79,6.0312,-0.108,-0.016,0.02,51.0,53.0,52.0,12.3,1504.1,218.6,-1.5,1.7,1475.684,13.12,0.109,261.6
07,2023-03-18T12:30:00,1500.0,42.79,6.0312,-0.086,0.004,0.006,53.0,53.0,52.0,12.3,1504.1,222.1,-1.1,1.6,1475.663,13.12,0.086,272.7
07,2023-03-18T13:00:00,1500.0,42.79,6.0312,-0.091,-0.012,0.013,54.0,56.0,53.0,12.3,1504.1,217.8,-1.2,1.9,1475.587,13.12,0.091,262.5
07,2023-03-18T13:30:00,1500.0,42.79,6.0312,-0.086,-0.006,0.01,53.0,53.0,53.0,12.3,1504.1,218.9,-0.5,1.9,1475.593,13.12,0.086,266.0
07,2023-03-18T14:00:00,1500.0,42.79,6.0312,-0.087,-0.021,-0.013,53.0,54.0,54.0,12.3,1504.1,214.1,-0.8,1.9,1475.642,13.12,0.089,256.4
07,2023-03-18T14:30:00,1500.0,42.79,6.0312,-0.092,-0.023,-0.005,52.0,54.0,52.0,12.3,1504.1,216.8,-1.1,2.1,1475.634,13.12,0.094,256.0
07,2023-03-18T15:00:00,1500.0,42.79,6.0312,-0.096,-0.007,0.003,51.0,53.0,52.0,12.3,1504.1,222.1,-1.2,1.7,1475.635,13.12,0.096,265.8
07,2023-03-18T15:30:00,1500.0,42.79,6.0312,-0.081,-0.024,-0.012,52.0,53.0,51.0,12.3,1504.1,214.9,-1.7,1.9,1475.593,13.12,0.084,253.5
07,2023-03-18T16:00:00,1500.0,42.79,6.0312,-0.086,-0.016,-0.015,52.0,53.0,52.0,12.3,1504.1,216.4,-1.8,1.9,1475.531,13.12,0.087,259.5
07,2023-03-18T16:30:00,1500.0,42.79,6.0312,-0.087,-0.023,0.009,47.0,47.0,45.0,12.3,1504.1,213.3,-2.0,1.7,1475.588,13.12,0.089,255.2
07,2023-03-18T17:00:00,1500.0,42.79,6.0312,-0.096,-0.018,-0.002,49.0,48.0,49.0,12.3,1504.1,218.9,0.0,1.7,1475.588,13.12,0.097,259.4
07,2023-03-18T17:30:00,1500.0,42.79,6.0312,-0.094,-0.01,0.004,52.0,53.0,52.0,12.3,1504.1,225.4,-1.4,1.6,1475.595,13.12,0.094,263.9
07,2023-03-18T18:00:00,1500.0,42.79,6.0312,-0.091,-0.015,0.005,53.0,56.0,53.0,12.3,1504.1,218.8,-1.6,1.9,1475.528,13.13,0.092,260.6
07,2023-03-18T18:30:00,1500.0,42.79,6.0312,-0.101,-0.009,-0.002,46.0,48.0,49.0,12.3,1504.1,224.0,-0.3,1.9,1475.531,13.13,0.101,264.9
07,2023-03-18T19:00:00,1500.0,42.79,6.0312,-0.082,-0.006,-0.006,48.0,48.0,50.0,12.3,1504.1,226.8,-1.5,1.6,1475.536,13.13,0.082,265.8
07,2023-03-18T19:30:00,1500.0,42.79,6.0312,-0.1,-0.023,-0.005,48.0,50.0,47.0,12.3,1504.1,215.9,-0.3,1.6,1475.508,13.13,0.102,257.0
07,2023-03-18T20:00:00,1500.0,42.79,6.0312,-0.103,-0.005,0.019,48.0,50.0,47.0,12.3,1504.1,228.5,0.1,1.7,1475.412,13.12,0.103,267.2
07,2023-03-18T20:30:00,1500.0,42.79,6.0312,-0.094,-0.012,-0.002,46.0,45.0,44.0,12.3,1504.1,221.8,-1.0,1.6,1475.391,13.12,0.094,262.7
07,2023-03-18T21:00:00,1500.0,42.79,6.0312,-0.094,-0.004,0.001,44.0,46.0,44.0,12.3,1504.1,224.9,-0.1,1.6,1475.273,13.12,0.094,267.6
07,2023-03-18T21:30:00,1500.0,42.79,6.0312,-0.095,-0.036,0.019,46.0,46.0,46.0,12.3,1504.1,206.5,-0.1,1.2,1475.226,13.12,0.101,249.2
07,2023-03-18T22:00:00,1500.0,42.79,6.0312,-0.09,-0.029,0.018,46.0,47.0,45.0,12.3,1504.1,206.7,0.6,1.2,1475.204,13.13,0.094,252.1
07,2023-03-18T22:30:00,1500.0,42.79,6.0312,-0.09,0.003,0.011,43.0,48.0,45.0,12.3,1504.1,217.1,-1.9,1.5,1475.218,13.12,0.09,271.9
07,2023-03-18T23:00:00,1500.0,42.79,6.0312,-0.1,0.002,0.016,45.0,45.0,44.0,12.3,1504.1,213.6,0.1,1.5,1475.223,13.12,0.1,271.1
